Regional Weather Roundup
Issued by NWS

Home | Current Version | Previous Version | Graphics & Text | Print | Product List | Glossary On
Versions: 1 2 3 4 5 6 7 8 9 10 11 12 13 14 15 16 17 18 19 20 21 22 23 24 25 26 27 28 29 30 31 32 33 34 35 36 37 38 39 40 41 42 43 44 45 46 47 48 49 50
000
ASUS43 KDTX 211601
RWRMI
MICHIGAN HOURLY REGIONAL WEATHER ROUNDUP
NATIONAL WEATHER SERVICE DETROIT/PONTIAC MI
1200 PM EDT FRI JUL 21 2017

NOTE: "FAIR" INDICATES FEW OR NO CLOUDS BELOW 12,000 FEET WITH NO
SIGNIFICANT WEATHER AND/OR OBSTRUCTION TO VISIBILITY.

MIZ047>049-052>055-059>063-066>070-074>076-081>083-211700-
SOUTHEAST LOWER MICHIGAN

CITY           SKY/WX    TMP DP  RH WIND       PRES   REMARKS
ADRIAN         CLOUDY    81  68  64 VRB5      30.00F
ALMA           MOSUNNY   81  64  54 CALM      30.01R
ANN ARBOR      MOSUNNY   83  68  60 NE8       29.99F
BAD AXE        SUNNY     79  62  55 W3        29.99S
CARO           SUNNY     82  63  52 SW3       29.99S
DETROIT CITY   PTSUNNY   83  67  58 CALM      29.99S
DETROIT        PTSUNNY   85  69  58 NE7       29.99F
FLINT          SUNNY     83  64  52 CALM      30.00S
GROSSE ILE     CLOUDY    81  68  65 NE5       29.98F
HILLSDALE      PTSUNNY   79  68  69 NE8       30.01S
HOWELL         SUNNY     80  65  59 E3        30.00F

CITY           SKY/WX    TMP DP  RH WIND       PRES   REMARKS
JACKSON        MOSUNNY   83  64  52 E7        30.00F
LAMBERTVILLE   CLOUDY    80  71  75 NE3       29.98F
LANSING        SUNNY     81  64  56 NE6       30.01S
LAPEER         FAIR      80  64  57 CALM      30.01S
MASON          SUNNY     80  67  64 E5        30.00S
MONROE         CLOUDY    81  70  68 NE5       29.98F
MT. CLEMENS    PTSUNNY   81  69  66 E5        29.98S
PONTIAC        PTSUNNY   82  64  54 VRB6      29.99F
PORT HOPE        N/A     75  63  66 CALM      29.98R
PORT HURON     MOSUNNY   79  64  61 N5        29.99S
TRI CITIES     SUNNY     81  65  58 VRB3      30.00R
MIDLAND        FAIR      82  64  53 SW6       29.99R
TROY           MOSUNNY   83  64  53 N5        30.01F
SAGINAW HB     SUNNY     79  66  65 S3        29.99S
$$
MIZ043>046-050>051-056>058-064>065-071>073-077>080-211700-
SOUTHWEST LOWER MICHIGAN

CITY           SKY/WX    TMP DP  RH WIND       PRES   REMARKS
BATTLE CREEK   MOSUNNY   82  67  60 VRB5      30.01S
BENTON HARBOR  MOSUNNY   82  69  64 SE7       30.00R
BIG RAPIDS     CLOUDY    84  63  48 SW5       29.98S
COLDWATER      MOSUNNY   80  69  71 NE5       30.00S
FREMONT        FAIR      85  63  48 W5        29.99R
HOLLAND        CLOUDY    80  70  71 SE3       30.01R
GRAND RAPIDS   PTSUNNY   82  68  62 CALM      30.00R
IONIA          FAIR      79  66  63 CALM      30.00R
KALAMAZOO      MOSUNNY   82  67  60 MISG      30.00S
LUDINGTON      MOSUNNY   80  70  72 W5        29.97R
MARSHALL       SUNNY     80  68  67 CALM      30.00S
MOUNT PLEASANT MOSUNNY   83  64  52 S5        29.98S
MUSKEGON       PTSUNNY   83  70  64 W8        29.99R
SOUTH HAVEN    MOSUNNY   82  72  73 E5        30.00R
$$
MIZ016>042-211700-
NORTHERN LOWER MICHIGAN

CITY           SKY/WX    TMP DP  RH WIND       PRES   REMARKS
ALPENA         SUNNY     82  59  45 VRB7      29.97R
BEAVER ISLAND  PTSUNNY   72  67  84 W9        29.99R
BELLAIRE       SUNNY     82  62  50 CALM      29.97R
CADILLAC       SUNNY     85  55  36 SW3       30.00R
CHARLEVOIX     SUNNY     81  65  57 W10       30.00R
FRANKFORT      SUNNY     82  66  60 W5        29.98S
GAYLORD        SUNNY     81  58  45 W8        30.00S
GRAYLING       SUNNY     82  59  46 SW5       29.99F
HARBOR SPRINGS SUNNY     78  61  55 W5        29.97R
HOUGHTON LAKE  SUNNY     80  66  62 SW6       30.01R
MANISTEE       SUNNY     85  65  51 W5        29.97R
OSCODA         MOSUNNY   82  57  42 CALM      29.97R
PELLSTON       SUNNY     82  61  48 W8        29.98R
ROGERS CITY    SUNNY     74  64  70 NE7       29.98R
TRAVERSE CITY  MOSUNNY   84  57  39 SW6       29.95S
$$
MIZ007>008-015-211700-
EASTERN UPPER MICHIGAN

CITY           SKY/WX    TMP DP  RH WIND       PRES   REMARKS
KINROSS        PTSUNNY   76  63  64 SW7       29.97S
MACKINAC ISLAN SUNNY     74  64  69 W9        29.98R
NEWBERRY       SUNNY     76  65  70 W9        29.96S
S. S. MARIE    SUNNY     77  63  61 W7        29.95S
MUNISING         N/A     71  65  81 NE6       29.97R
$$
MIZ004>006-011>014-085-211700-
CENTRAL UPPER MICHIGAN

CITY           SKY/WX    TMP DP  RH WIND       PRES   REMARKS
MANISTIQUE     CLOUDY    72  69  89 SW3       29.97R
ESCANABA       CLOUDY    81  66  60 SW9       29.97R
MENOMINEE      SUNNY     83  66  56 W7        29.98S
SAWYER-GWINN   SUNNY     72  61  68 SW5       30.00R
$$
MIZ001>003-009>011-084-211700-
WESTERN UPPER MICHIGAN

CITY           SKY/WX    TMP DP  RH WIND       PRES   REMARKS
IRON MOUNTAIN  SUNNY     83  64  52 VRB3      29.97F
HOUGHTON       CLOUDY    72  60  66 SW3       29.98R
COPPER HARBOR    N/A     62  55  77 N5        29.96R
IRONWOOD       PTSUNNY   75  63  66 CALM      29.98F
$$

ABBREVIATIONS USED IN REMARKS
   TC - TEMPERATURE IN CELSIUS
  WCI - WIND CHILL INDEX
   HX - HEAT INDEX
  VSB - VISIBILITY





USA.gov is the U.S. government's official web portal to all federal, state and local government web resources and services.